CAPE
164 1091 1131 1748 2050 1873 1886 1793 2098 2855 2634 2613 2773 2681 2532 2455 2214 2476 1879 1755 1464 1563
289 235 1256 1686 2148 2204 2389 2219 2180 2325 2741 2722 2753 2903 2673 2474 2294 2207 2220 1933 1912 1687
381 332 376 1846 2177 2426 2344 2481 2567 2176 2365 2850 2689 2817 2669 2542 2465 2850 2722 2306 1801 1750
112 628 441 947 1697 2409 2123 2456 2580 2386 2504 2023 2646 2624 2619 2618 2839 2578 2300 2076 1762 1864
172 577 678 1143 1439 1972 2138 2178 2227 1592 1750 2108 1718 1386 1468 1853 2625 2358 2713 2362 2326 2180
203 468 504 716 1397 2109 2024 2183 1448 392 204 1 0 0 7 820 2600 2741 2927 2695 2455 2077
107 379 209 554 1284 1715 1973 1423 222 0 0 16 0 0 274 1670 2554 2396 2261 2102 1919 1676
69 139 170 270 715 1277 1039 591 213 0 0 181 0 62 937 1335 1605 1825 1843 1345 1173 1118
22 1 34 52 11 97 374 146 0 201 0 132 575 823 921 1136 1175 1189 852 579 398 32
0 1 0 0 0 44 0 358 436 598 414 589 415 527 658 777 863 843 695 472 261 0
0 0 4 5 0 0 2 148 414 414 263 418 403 306 380 747 931 756 692 473 153 0
0 0 0 13 0 0 0 23 749 866 492 554 209 49 293 606 764 781 434 185 28 2
0 0 1 18 0 0 0 0 312 1065 731 642 159 0 105 576 612 443 243 195 60 0
0 0 1 0 20 0 0 0 7 654 1061 795 171 3 14 303 342 240 174 102 145 58
CIN
-78 -9 -9 -16 -3 -11 -28 -25 -7 -3 -29 -29 -18 -29 -64 -12 -30 -14 -37 -36 -44 -38
-24 -57 -6 -2 -7 -6 -9 -27 -25 -17 -6 -9 -32 -25 -42 -13 -2 -14 -27 -29 -46 -54
-8 -32 -52 -5 -3 -5 -5 -11 -2 -32 -26 -6 -11 -12 -21 -4 -3 0 -7 -30 -31 -47
-40 -9 -36 -26 -3 -4 -9 -5 -6 -13 -27 -9 -1 -5 -15 -4 -6 -11 -20 -17 -23 -31
-41 -10 -33 -21 -6 -7 -10 -21 -6 -85 -54 -26 -12 -18 -10 -13 -12 -28 -23 -28 -13 -11
-29 -27 -63 -44 -4 -5 -10 -13 -48 -186 -231 -55 0 0 -19 0 -14 -29 -19 -21 -9 -3
-28 -26 -152 -73 -13 -11 -14 -20 -218 -134 0 -55 0 0 -47 -4 -17 -17 -19 -20 -12 -13
-56 -57 -130 -160 -79 -10 -56 -157 -195 0 0 -17 0 -84 -3 -9 -24 -4 -11 -24 -17 -13
-11 -14 -176 -198 -322 -244 -121 -266 -6 -157 0 -31 -1 -14 -10 -38 -48 -33 -48 -29 -15 -20
0 -16 -59 0 0 -140 0 -78 -115 -80 -77 -29 -23 -29 -67 -87 -92 -52 -40 -43 -28 -16
0 0 -5 -52 0 0 -62 -94 -10 -9 -33 -17 -34 -105 -115 -54 -60 -42 -29 -24 -91 0
0 0 0 -7 0 0 0 -166 -9 -6 -8 -10 -65 -177 -118 -88 -28 -32 -73 -107 -125 -59
0 0 -33 -3 -2 0 0 0 -76 -5 -12 -18 -94 -101 -178 -91 -44 -71 -88 -94 -108 0
0 0 -8 0 -7 0 0 0 -66 -12 -5 -21 -94 -125 -136 -78 -155 -110 -109 -139 -92 -91
Wind_Speed
50 45 42 45 45 43 41 40 39 37 33 32 33 30 27 28 27 24 26 26 24 23
47 50 47 45 44 46 42 41 39 38 43 36 34 32 30 29 30 28 25 25 23 23
47 48 51 46 45 46 45 43 40 36 38 35 34 33 32 32 30 26 25 23 22 19
48 49 49 51 49 46 47 48 50 39 40 42 38 36 35 31 27 25 21 21 22 20
47 46 44 49 49 48 45 49 51 45 44 46 42 36 38 34 29 20 21 20 20 19
45 45 46 47 45 45 46 49 45 40 33 32 31 35 41 36 14 14 18 17 18 17
42 42 44 45 44 47 48 43 35 32 27 28 28 24 36 36 13 12 14 14 16 16
42 41 41 42 42 47 40 38 33 28 27 23 19 32 31 14 11 12 12 12 11 8
45 42 42 39 39 41 36 38 36 31 26 28 34 26 21 10 7 6 5 5 7 7
48 46 42 39 36 44 35 23 30 28 23 22 16 18 13 8 6 5 4 3 5 7
50 49 46 37 35 31 42 30 29 26 23 18 16 18 15 11 8 6 3 3 3 6
53 52 49 41 38 30 29 30 30 25 22 20 19 19 17 11 8 6 3 4 4 6
56 51 52 46 40 37 31 31 28 23 23 20 20 21 16 11 9 7 5 5 6 9
54 55 50 45 41 37 38 32 32 27 25 23 21 21 18 14 10 12 9 10 11 13
Wind_Direction
278 275 271 264 262 259 258 259 259 253 246 246 249 247 246 247 246 247 252 259 260 268
281 274 269 266 262 259 257 258 257 256 255 244 242 243 243 246 248 249 254 257 257 265
284 278 270 265 262 259 256 256 250 246 249 246 243 243 243 243 243 247 250 254 258 264
284 281 271 269 262 260 257 254 256 251 245 248 249 242 237 234 235 237 249 256 264 268
287 287 282 268 262 259 256 254 252 261 262 252 252 256 243 232 222 233 249 257 265 270
286 286 281 272 266 260 257 254 255 258 262 268 262 267 275 240 237 240 255 261 265 269
286 286 283 274 268 259 256 254 252 254 258 263 267 259 253 246 259 255 259 266 271 272
283 284 281 277 273 264 256 249 247 250 257 247 261 241 191 198 252 261 262 269 273 264
278 280 277 280 277 270 255 247 244 244 239 233 188 176 180 211 241 257 262 261 263 283
272 274 274 275 283 268 276 231 237 239 227 213 197 172 195 203 216 215 210 230 266 284
268 266 269 274 276 280 277 256 238 239 233 224 224 185 186 191 204 205 227 266 261 272
262 261 263 269 269 273 273 261 240 239 232 224 227 198 185 192 210 211 214 248 281 288
253 257 256 265 264 261 264 255 246 241 232 226 220 220 201 212 218 222 235 258 284 289
251 250 256 261 262 261 252 255 251 253 242 231 218 219 211 212 220 231 251 268 272 278